DW2640 Weather Reports


Display with metric or nautical units.
time (UTC)temp
F
wind
direction
speed
MPH
gust
MPH
rain 1hr
in
rain 24hr
in
rain mn
in
humidity
%
barometer
mb
20260903061605 81 183 3.0 6.0 0.00 0.00 0.00 60 1009.3
20260903060050 81 185 2.0 6.0 0.00 0.00 0.00 59 1009.3
20260903054548 82 156 3.0 7.0 0.00 0.00 0.00 58 1009.2
20260903053047 82 146 4.0 7.0 0.00 0.00 0.00 57 1009.2
20260903051541 83 190 3.0 7.0 0.00 0.00 0.00 56 1009.3
20260903050039 84 165 4.0 8.0 0.00 0.00 0.00 55 1009.4
20260903044545 84 174 4.0 8.0 0.00 0.00 0.00 54 1009.1
20260903043037 85 160 6.0 10.0 0.00 0.00 0.00 53 1009.2
20260903041543 85 147 5.0 10.0 0.00 0.00 0.00 52 1009.0
20260903040037 86 169 7.0 13.0 0.00 0.00 0.00 51 1009.2
20260903034537 86 144 7.0 13.0 0.00 0.00 0.00 50 1009.2
20260903033035 86 167 8.0 13.0 0.00 0.00 0.00 50 1009.1
20260903031535 86 178 7.0 13.0 0.00 0.00 0.00 50 1009.2
20260903030035 86 156 6.0 9.0 0.00 0.00 0.00 50 1009.2
20260903024534 86 178 5.0 8.0 0.00 0.00 0.00 49 1009.0
20260903023035 87 144 4.0 8.0 0.00 0.00 0.00 49 1009.0
20260903021535 87 155 4.0 7.0 0.00 0.00 0.00 48 1008.6
20260903020039 88 155 4.0 7.0 0.00 0.00 0.00 47 1008.4
20260903014545 89 154 2.0 7.0 0.00 0.00 0.00 46 1008.1
20260903013033 90 159 4.0 8.0 0.00 0.00 0.00 44 1008.0
20260903011535 91 192 5.0 9.0 0.00 0.00 0.00 43 1007.9
20260903010034 92 180 4.0 12.0 0.00 0.00 0.00 42 1008.1
20260903004533 93 176 5.0 10.0 0.00 0.00 0.00 41 1007.9
20260903003029 94 190 5.0 13.0 0.00 0.00 0.00 39 1008.0
20260903001529 95 201 5.0 12.0 0.00 0.00 0.00 38 1008.1
20260903000028 96 129 7.0 14.0 0.00 0.00 0.00 37 1008.0
20260902234527 97 200 7.0 13.0 0.00 0.00 0.00 37 1008.0
20260902233030 97 185 9.0 16.0 0.00 0.00 0.00 36 1007.8
20260902231540 98 206 6.0 15.0 0.00 0.00 0.00 36 1008.1
20260902230028 98 212 7.0 15.0 0.00 0.00 0.00 36 1008.0
20260902224525 98 180 9.0 16.0 0.00 0.00 0.00 35 1007.9
20260902223034 99 342 10.0 15.0 0.00 0.00 0.00 33 1008.1
20260902221528 99 182 5.0 15.0 0.00 0.00 0.00 33 1008.2
20260902220031 99 219 8.0 14.0 0.00 0.00 0.00 33 1008.2
20260902214523 98 205 6.0 15.0 0.00 0.00 0.00 34 1008.5
20260902213019 98 233 6.0 16.0 0.00 0.00 0.00 33 1008.7
20260902211518 99 180 6.0 15.0 0.00 0.00 0.00 34 1008.7
20260902210016 98 175 8.0 16.0 0.00 0.00 0.00 34 1008.9
20260902204515 99 211 10.0 16.0 0.00 0.00 0.00 34 1009.2
20260902203014 98 251 8.0 18.0 0.00 0.00 0.00 34 1009.2
20260902201511 99 268 10.0 19.0 0.00 0.00 0.00 33 1009.5
20260902200010 98 167 9.0 18.0 0.00 0.00 0.00 35 1009.7
20260902194522 98 166 6.0 19.0 0.00 0.00 0.00 35 1009.8
20260902193004 98 223 7.0 14.0 0.00 0.00 0.00 36 1010.2
20260902191502 98 246 7.0 16.0 0.00 0.00 0.00 38 1010.5
20260902190059 97 218 12.0 18.0 0.00 0.00 0.00 38 1010.7
20260902184558 97 246 9.0 16.0 0.00 0.00 0.00 40 1010.9
20260902183056 96 157 7.0 19.0 0.00 0.00 0.00 41 1011.1
20260902181556 96 223 8.0 16.0 0.00 0.00 0.00 40 1011.2
20260902180056 96 198 10.0 18.0 0.00 0.00 0.00 41 1011.3
20260902174552 96 247 9.0 15.0 0.00 0.00 0.00 42 1011.6
20260902173048 95 238 8.0 15.0 0.00 0.00 0.00 42 1011.7
20260902171546 95 222 9.0 14.0 0.00 0.00 0.00 44 1011.8
20260902170044 93 227 9.0 16.0 0.00 0.00 0.00 46 1012.0
20260902164542 93 240 10.0 15.0 0.00 0.00 0.00 47 1012.2
20260902163044 93 198 8.0 15.0 0.00 0.00 0.00 47 1012.2
20260902161540 91 237 10.0 18.0 0.00 0.00 0.00 50 1012.3
20260902160034 91 215 8.0 14.0 0.00 0.00 0.00 51 1012.4
20260902154531 90 230 9.0 14.0 0.00 0.00 0.00 50 1012.7
20260902153027 89 257 9.0 18.0 0.00 0.00 0.00 52 1012.5
20260902151528 89 235 8.0 14.0 0.00 0.00 0.00 53 1012.7
20260902150022 88 227 8.0 18.0 0.00 0.00 0.00 54 1012.7
20260902144518 87 223 5.0 16.0 0.00 0.00 0.00 56 1012.6
20260902143014 85 219 7.0 15.0 0.00 0.00 0.00 58 1012.8
20260902141511 84 214 4.0 10.0 0.00 0.00 0.00 61 1012.7
20260902140012 83 227 4.0 9.0 0.00 0.00 0.00 62 1012.8
20260902134504 82 153 4.0 9.0 0.00 0.00 0.00 63 1012.7
20260902133107 81 171 3.0 9.0 0.00 0.00 0.00 65 1012.7
20260902131501 79 175 3.0 6.0 0.00 0.00 0.00 67 1012.6
20260902130059 78 171 3.0 5.0 0.00 0.00 0.00 68 1012.4
20260902124558 77 186 1.0 4.0 0.00 0.00 0.00 69 1012.2
20260902123057 76 204 1.0 4.0 0.00 0.00 0.00 70 1012.0
20260902121556 75 221 0.0 4.0 0.00 0.00 0.00 70 1012.0
20260902120054 75 220 0.0 2.0 0.00 0.00 0.00 70 1011.9
20260902114553 75 176 1.0 5.0 0.00 0.00 0.00 70 1011.8
20260902113052 75 184 1.0 4.0 0.00 0.00 0.00 69 1011.7
20260902111551 75 175 1.0 4.0 0.00 0.00 0.00 69 1011.6
20260902110050 75 173 1.0 3.0 0.00 0.00 0.00 69 1011.6
20260902104613 75 196 0.0 2.0 0.00 0.00 0.00 68 1011.5
20260902103046 75 183 0.0 2.0 0.00 0.00 0.00 67 1011.5
20260902101546 75 188 0.0 2.0 0.00 0.00 0.00 67 1011.5
20260902100106 75 215 0.0 4.0 0.00 0.00 0.00 66 1011.4
20260902094544 75 215 0.0 2.0 0.00 0.00 0.00 66 1011.5
20260902093041 76 215 1.0 2.0 0.00 0.00 0.00 65 1011.4
20260902091540 76 215 0.0 2.0 0.00 0.00 0.00 65 1011.3
20260902090038 77 215 0.0 2.0 0.00 0.00 0.00 63 1011.4
20260902084537 77 215 0.0 4.0 0.00 0.00 0.00 63 1011.4
20260902083034 78 203 1.0 2.0 0.00 0.00 0.00 62 1011.3
20260902081534 78 192 1.0 5.0 0.00 0.00 0.00 61 1011.3
20260902080027 79 190 1.0 5.0 0.00 0.00 0.00 60 1011.1
20260902074526 79 175 3.0 6.0 0.00 0.00 0.00 60 1010.9
20260902073021 79 201 3.0 7.0 0.00 0.00 0.00 60 1010.9
20260902071530 79 174 3.0 8.0 0.00 0.00 0.00 59 1011.0
20260902070017 80 161 4.0 6.0 0.00 0.00 0.00 58 1011.0
20260902064515 80 170 3.0 7.0 0.00 0.00 0.00 58 1011.0
20260902063014 80 173 3.0 7.0 0.00 0.00 0.00 58 1011.0